Regional Weather Roundup
Issued by NWS

Home | Current Version | Previous Version | Text Only | Print | Product List | Glossary On
Versions: 1 2 3 4 5 6 7 8 9 10 11 12 13 14 15 16 17 18 19 20 21 22 23 24 25 26 27 28 29 30 31 32 33 34 35 36 37 38 39 40 41 42 43 44 45 46 47 48 49 50
000
ASCA42 TJSJ 012211
RWRPR
PUERTO RICO/U.S. VIRGIN ISLANDS HOURLY WEATHER ROUNDUP
NATIONAL WEATHER SERVICE SAN JUAN PR
600 PM AST MON SEP 01 2014

PRZ001-004-012300-
PUERTO RICO

CITY           SKY/WX    TMP DP  RH WIND       PRES   REMARKS
SAN JUAN LMM   PTCLDY    84  75  74 E14       29.96F HX  92
PONCE          PTCLDY    88  75  66 SE14      29.93S HX  97
MAYAGUEZ       MOCLDY    81  75  83 W7        29.97S
AGUADILLA      CLOUDY    79  75  89 E7        29.98S
CEIBA          PTCLDY    82  73  74 E10       30.00S
$$

PRZ006-007-012300-
U.S. VIRGIN ISLANDS

CITY           SKY/WX    TMP DP  RH WIND       PRES   REMARKS
CHARLOTTE AMA  PTCLDY    82  73  74 E12       29.97S
CHRISTIANSTED  PTCLDY    84  73  70 E16       29.98R HX  91
$$

HOURLY WEATHER ROUNDUP FOR THE NEWS MEDIA

CITY           SKY/WX    TMP DP  RH WIND       PRES   REMARKS
MIAMI          MOSUNNY   88  72  58 SE9       30.03S HX  94
ORLANDO        CLOUDY    90  71  53 E12G20    30.04F HX  96
NEW YORK       PTSUNNY   79  73  82 S7        29.95S
NEWARK         PTSUNNY   87  71  58 S8        29.91F HX  93
CHICAGO        MOSUNNY   81  62  52 W16G24    29.76S
HARTFORD       SUNNY     81  71  71 SW9       29.91F
BOSTON         MOSUNNY   80  70  71 E3        29.91S
DALLAS         MOSUNNY   95  68  41 S17       29.84F HX  99
PHILADELPHIA   PTSUNNY   88  71  57 SW9       29.93F HX  94


USA.gov is the U.S. government's official web portal to all federal, state and local government web resources and services.